Time,TemperatureF,DewpointF,PressureIn,WindDirection,WindDirectionDegrees,WindSpeedMPH,WindSpeedGustMPH,Humidity,HourlyPrecipIn,Conditions,Clouds,dailyrainin,SolarRadiationWatts/m^2,SoftwareType,DateUTC
2013-03-22 00:02:00,50.4,10.8,29.40,NNW,346,0.0,4.0,20,0.00,,,0.00,0.0,meteohub,2013-03-22 06:02:00,
2013-03-22 00:07:00,50.0,10.4,29.40,NNW,346,1.0,2.0,20,0.00,,,0.00,0.0,meteohub,2013-03-22 06:07:00,
2013-03-22 00:12:00,50.0,10.4,29.40,NNW,346,0.0,2.0,20,0.00,,,0.00,0.0,meteohub,2013-03-22 06:12:00,
2013-03-22 00:17:00,49.8,10.4,29.41,NNW,346,0.0,2.0,20,0.00,,,0.00,0.0,meteohub,2013-03-22 06:17:00,
2013-03-22 00:27:00,49.5,10.0,29.41,NNW,346,0.0,1.0,20,0.00,,,0.00,0.0,meteohub,2013-03-22 06:27:00,
2013-03-22 00:32:00,49.3,9.9,29.41,NNW,346,0.0,1.0,20,0.00,,,0.00,0.0,meteohub,2013-03-22 06:32:00,
2013-03-22 00:37:00,48.7,10.6,29.41,NNW,346,0.0,1.0,21,0.00,,,0.00,0.0,meteohub,2013-03-22 06:37:00,
2013-03-22 00:42:00,48.4,10.2,29.42,NNW,346,0.0,1.0,21,0.00,,,0.00,0.0,meteohub,2013-03-22 06:42:00,
2013-03-22 00:52:00,48.0,9.9,29.42,NNW,346,1.0,2.0,21,0.00,,,0.00,0.0,meteohub,2013-03-22 06:52:00,
2013-03-22 00:57:00,47.5,10.6,29.42,NNW,346,0.0,2.0,22,0.00,,,0.00,0.0,meteohub,2013-03-22 06:57:00,
2013-03-22 01:02:00,46.9,10.0,29.42,NNW,348,2.0,2.0,22,0.00,,,0.00,0.0,meteohub,2013-03-22 07:02:00,
2013-03-22 01:07:00,46.9,10.0,29.42,NNW,348,0.0,2.0,22,0.00,,,0.00,0.0,meteohub,2013-03-22 07:07:00,
2013-03-22 01:17:00,46.8,9.9,29.42,NNW,348,0.0,2.0,22,0.00,,,0.00,0.0,meteohub,2013-03-22 07:17:00,
2013-03-22 01:22:00,47.1,9.1,29.42,NNW,348,1.0,2.0,21,0.00,,,0.00,0.0,meteohub,2013-03-22 07:22:00,
2013-03-22 01:27:00,47.5,9.5,29.42,NNW,348,1.0,3.0,21,0.00,,,0.00,0.0,meteohub,2013-03-22 07:27:00,
2013-03-22 01:32:00,47.5,9.5,29.42,NNW,348,0.0,3.0,21,0.00,,,0.00,0.0,meteohub,2013-03-22 07:32:00,
2013-03-22 01:42:00,46.8,9.9,29.42,NNW,348,0.0,1.0,22,0.00,,,0.00,0.0,meteohub,2013-03-22 07:42:00,
2013-03-22 01:47:00,46.6,9.7,29.42,NNW,348,0.0,1.0,22,0.00,,,0.00,0.0,meteohub,2013-03-22 07:47:00,
2013-03-22 01:52:00,46.6,9.7,29.42,NNW,348,0.0,0.0,22,0.00,,,0.00,0.0,meteohub,2013-03-22 07:52:00,
2013-03-22 02:02:00,45.9,9.1,29.42,NNW,348,0.0,0.0,22,0.00,,,0.00,0.0,meteohub,2013-03-22 08:02:00,
2013-03-22 02:07:00,45.9,9.1,29.42,NNW,348,0.0,0.0,22,0.00,,,0.00,0.0,meteohub,2013-03-22 08:07:00,
2013-03-22 02:12:00,46.0,8.2,29.43,NNW,348,0.0,0.0,21,0.00,,,0.00,0.0,meteohub,2013-03-22 08:12:00,
2013-03-22 02:22:00,46.9,6.8,29.42,NE,44,4.0,4.0,19,0.00,,,0.00,0.0,meteohub,2013-03-22 08:22:00,
2013-03-22 02:27:00,47.7,6.3,29.42,NE,42,4.0,7.0,18,0.00,,,0.00,0.0,meteohub,2013-03-22 08:27:00,
2013-03-22 02:32:00,48.4,6.8,29.42,NE,41,4.0,8.0,18,0.00,,,0.00,0.0,meteohub,2013-03-22 08:32:00,
2013-03-22 02:37:00,48.7,5.9,29.42,NE,43,5.0,8.0,17,0.00,,,0.00,0.0,meteohub,2013-03-22 08:37:00,
2013-03-22 02:42:00,48.7,5.9,29.42,NE,49,5.0,8.0,17,0.00,,,0.00,0.0,meteohub,2013-03-22 08:42:00,
2013-03-22 02:47:00,48.7,5.9,29.42,North,5,4.0,8.0,17,0.00,,,0.00,0.0,meteohub,2013-03-22 08:47:00,
2013-03-22 02:52:00,48.6,5.7,29.42,NE,34,4.0,8.0,17,0.00,,,0.00,0.0,meteohub,2013-03-22 08:52:00,
2013-03-22 02:57:00,48.4,6.8,29.42,NE,35,3.0,8.0,18,0.00,,,0.00,0.0,meteohub,2013-03-22 08:57:00,
2013-03-22 03:02:00,47.8,6.4,29.42,NNE,30,2.0,6.0,18,0.00,,,0.00,0.0,meteohub,2013-03-22 09:02:00,
2013-03-22 03:12:00,47.5,6.1,29.42,NE,38,4.0,7.0,18,0.00,,,0.00,0.0,meteohub,2013-03-22 09:12:00,
2013-03-22 03:22:00,47.5,6.1,29.42,NE,42,4.0,7.0,18,0.00,,,0.00,0.0,meteohub,2013-03-22 09:22:00,
2013-03-22 03:27:00,47.3,5.9,29.42,NE,41,3.0,6.0,18,0.00,,,0.00,0.0,meteohub,2013-03-22 09:27:00,
2013-03-22 03:32:00,47.1,5.7,29.42,NE,47,3.0,7.0,18,0.00,,,0.00,0.0,meteohub,2013-03-22 09:32:00,
2013-03-22 03:37:00,46.9,5.5,29.42,NE,46,1.0,7.0,18,0.00,,,0.00,0.0,meteohub,2013-03-22 09:37:00,
2013-03-22 03:42:00,46.8,6.6,29.42,NE,42,0.0,5.0,19,0.00,,,0.00,0.0,meteohub,2013-03-22 09:42:00,
2013-03-22 03:47:00,46.2,6.3,29.42,NE,42,0.0,5.0,19,0.00,,,0.00,0.0,meteohub,2013-03-22 09:47:00,
2013-03-22 03:52:00,46.0,6.1,29.42,NE,42,0.0,5.0,19,0.00,,,0.00,0.0,meteohub,2013-03-22 09:52:00,
2013-03-22 03:57:00,45.7,5.7,29.42,NE,42,0.0,2.0,19,0.00,,,0.00,0.0,meteohub,2013-03-22 09:57:00,
2013-03-22 04:02:00,45.3,6.6,29.42,NE,42,0.0,0.0,20,0.00,,,0.00,0.0,meteohub,2013-03-22 10:02:00,
2013-03-22 04:12:00,45.1,6.4,29.42,NE,42,1.0,0.0,20,0.00,,,0.00,0.0,meteohub,2013-03-22 10:12:00,
2013-03-22 04:17:00,44.6,5.9,29.42,NE,42,1.0,1.0,20,0.00,,,0.00,0.0,meteohub,2013-03-22 10:17:00,
2013-03-22 04:22:00,44.2,6.8,29.42,NE,44,2.0,2.0,21,0.00,,,0.00,0.0,meteohub,2013-03-22 10:22:00,
2013-03-22 04:27:00,44.2,6.8,29.42,NE,46,2.0,3.0,21,0.00,,,0.00,0.0,meteohub,2013-03-22 10:27:00,
2013-03-22 04:32:00,44.2,6.8,29.42,NE,46,0.0,3.0,21,0.00,,,0.00,0.0,meteohub,2013-03-22 10:32:00,
2013-03-22 04:37:00,43.9,6.4,29.42,NE,46,1.0,4.0,21,0.00,,,0.00,0.0,meteohub,2013-03-22 10:37:00,
2013-03-22 04:42:00,43.5,7.2,29.42,NE,48,2.0,4.0,22,0.00,,,0.00,0.0,meteohub,2013-03-22 10:42:00,
2013-03-22 04:47:00,43.3,7.0,29.42,NE,48,0.0,2.0,22,0.00,,,0.00,0.0,meteohub,2013-03-22 10:47:00,
2013-03-22 04:52:00,43.5,7.2,29.42,NE,48,2.0,2.0,22,0.00,,,0.00,0.0,meteohub,2013-03-22 10:52:00,
2013-03-22 04:57:00,43.5,7.2,29.43,NE,46,3.0,3.0,22,0.00,,,0.00,0.0,meteohub,2013-03-22 10:57:00,
2013-03-22 05:02:00,43.5,7.2,29.43,NNE,28,2.0,4.0,22,0.00,,,0.00,0.0,meteohub,2013-03-22 11:02:00,
2013-03-22 05:07:00,43.9,7.5,29.43,NE,35,3.0,6.0,22,0.00,,,0.00,0.0,meteohub,2013-03-22 11:07:00,
2013-03-22 05:12:00,43.9,6.4,29.43,NE,38,4.0,6.0,21,0.00,,,0.00,0.0,meteohub,2013-03-22 11:12:00,
2013-03-22 05:17:00,43.9,6.4,29.43,NE,42,3.0,6.0,21,0.00,,,0.00,0.0,meteohub,2013-03-22 11:17:00,
2013-03-22 05:22:00,43.9,7.5,29.43,NE,45,2.0,5.0,22,0.00,,,0.00,0.0,meteohub,2013-03-22 11:22:00,
2013-03-22 05:27:00,43.3,7.0,29.43,NE,44,3.0,5.0,22,0.00,,,0.00,0.0,meteohub,2013-03-22 11:27:00,
2013-03-22 05:32:00,43.3,7.0,29.43,NE,37,2.0,5.0,22,0.00,,,0.00,0.0,meteohub,2013-03-22 11:32:00,
2013-03-22 05:42:00,43.3,7.0,29.43,NNE,32,1.0,5.0,22,0.00,,,0.00,0.0,meteohub,2013-03-22 11:42:00,
2013-03-22 05:47:00,43.2,6.8,29.44,NNE,32,0.0,5.0,22,0.00,,,0.00,0.0,meteohub,2013-03-22 11:47:00,
2013-03-22 05:52:00,43.0,6.8,29.44,NNE,32,2.0,4.0,22,0.00,,,0.00,0.0,meteohub,2013-03-22 11:52:00,
2013-03-22 05:57:00,41.9,7.7,29.44,NNE,33,0.0,2.0,24,0.00,,,0.00,0.0,meteohub,2013-03-22 11:57:00,
2013-03-22 06:02:00,41.4,8.2,29.45,NNE,33,0.0,3.0,25,0.00,,,0.00,0.0,meteohub,2013-03-22 12:02:00,
2013-03-22 06:07:00,41.2,9.7,29.45,NNE,33,0.0,3.0,27,0.00,,,0.00,0.0,meteohub,2013-03-22 12:07:00,
2013-03-22 06:12:00,40.8,7.7,29.45,NNE,33,0.0,3.0,25,0.00,,,0.00,0.0,meteohub,2013-03-22 12:12:00,
2013-03-22 06:17:00,40.5,8.2,29.46,NNE,33,0.0,1.0,26,0.00,,,0.00,0.0,meteohub,2013-03-22 12:17:00,
2013-03-22 06:22:00,39.7,8.4,29.46,NNE,33,0.0,1.0,27,0.00,,,0.00,0.0,meteohub,2013-03-22 12:22:00,
2013-03-22 06:27:00,39.9,8.6,29.46,NNE,33,0.0,2.0,27,0.00,,,0.00,0.0,meteohub,2013-03-22 12:27:00,
2013-03-22 06:32:00,40.6,9.3,29.47,NNE,33,2.0,2.0,27,0.00,,,0.00,0.0,meteohub,2013-03-22 12:32:00,
2013-03-22 06:37:00,40.1,12.6,29.47,NNE,33,0.0,2.0,32,0.00,,,0.00,0.0,meteohub,2013-03-22 12:37:00,
2013-03-22 06:42:00,39.7,10.0,29.47,NNE,33,0.0,2.0,29,0.00,,,0.00,0.0,meteohub,2013-03-22 12:42:00,
2013-03-22 06:47:00,39.0,9.5,29.47,NNE,33,0.0,2.0,29,0.00,,,0.00,0.0,meteohub,2013-03-22 12:47:00,
2013-03-22 06:52:00,38.8,10.0,29.47,NNE,33,0.0,2.0,30,0.00,,,0.00,0.0,meteohub,2013-03-22 12:52:00,
2013-03-22 06:57:00,38.7,9.9,29.47,NNE,33,0.0,0.0,30,0.00,,,0.00,0.0,meteohub,2013-03-22 12:57:00,
2013-03-22 07:02:00,39.0,9.5,29.47,NNE,33,0.0,0.0,29,0.00,,,0.00,0.0,meteohub,2013-03-22 13:02:00,
2013-03-22 07:07:00,38.5,9.7,29.47,NNE,33,0.0,2.0,30,0.00,,,0.00,0.0,meteohub,2013-03-22 13:07:00,
2013-03-22 07:12:00,39.0,13.1,29.48,NNE,33,0.0,2.0,34,0.00,,,0.00,5.0,meteohub,2013-03-22 13:12:00,
2013-03-22 07:17:00,39.0,10.2,29.47,NNE,33,0.0,2.0,30,0.00,,,0.00,9.0,meteohub,2013-03-22 13:17:00,
2013-03-22 07:22:00,38.7,9.1,29.48,NNE,33,0.0,1.0,29,0.00,,,0.00,12.0,meteohub,2013-03-22 13:22:00,
2013-03-22 07:27:00,39.0,10.2,29.48,NNE,33,0.0,2.0,30,0.00,,,0.00,16.0,meteohub,2013-03-22 13:27:00,
2013-03-22 07:37:00,39.6,9.9,29.49,NNE,33,0.0,2.0,29,0.00,,,0.00,23.0,meteohub,2013-03-22 13:37:00,
2013-03-22 07:42:00,39.7,10.0,29.48,NNE,33,0.0,1.0,29,0.00,,,0.00,72.0,meteohub,2013-03-22 13:42:00,
2013-03-22 07:47:00,39.7,10.0,29.49,NNE,33,0.0,1.0,29,0.00,,,0.00,91.0,meteohub,2013-03-22 13:47:00,
2013-03-22 07:57:00,41.5,8.2,29.49,NNE,33,0.0,1.0,25,0.00,,,0.00,130.0,meteohub,2013-03-22 13:57:00,
2013-03-22 08:02:00,42.3,8.1,29.49,NNE,33,0.0,1.0,24,0.00,,,0.00,151.0,meteohub,2013-03-22 14:02:00,
2013-03-22 08:07:00,42.4,9.1,29.49,NNE,33,0.0,0.0,25,0.00,,,0.00,171.0,meteohub,2013-03-22 14:07:00,
2013-03-22 08:12:00,42.8,9.3,29.49,NNE,33,0.0,0.0,25,0.00,,,0.00,190.0,meteohub,2013-03-22 14:12:00,
2013-03-22 08:17:00,43.3,8.1,29.50,NNE,31,2.0,2.0,23,0.00,,,0.00,209.0,meteohub,2013-03-22 14:17:00,
2013-03-22 08:27:00,44.1,7.7,29.50,NNE,13,1.0,5.0,22,0.00,,,0.00,244.0,meteohub,2013-03-22 14:27:00,
2013-03-22 08:32:00,44.4,7.9,29.50,NNE,13,1.0,5.0,22,0.00,,,0.00,262.0,meteohub,2013-03-22 14:32:00,
2013-03-22 08:37:00,44.8,7.2,29.50,NNE,13,0.0,4.0,21,0.00,,,0.00,281.0,meteohub,2013-03-22 14:37:00,
2013-03-22 08:42:00,45.0,7.3,29.49,NNE,13,0.0,2.0,21,0.00,,,0.00,299.0,meteohub,2013-03-22 14:42:00,
2013-03-22 08:52:00,46.0,7.2,29.50,NNE,13,0.0,2.0,20,0.00,,,0.00,338.0,meteohub,2013-03-22 14:52:00,
2013-03-22 08:57:00,46.6,7.7,29.49,NNE,13,0.0,2.0,20,0.00,,,0.00,355.0,meteohub,2013-03-22 14:57:00,
2013-03-22 09:02:00,46.9,7.9,29.49,NNE,13,0.0,2.0,20,0.00,,,0.00,371.0,meteohub,2013-03-22 15:02:00,
2013-03-22 09:12:00,47.8,7.5,29.49,North,0,3.0,3.0,19,0.00,,,0.00,408.0,meteohub,2013-03-22 15:12:00,
2013-03-22 09:17:00,48.2,6.6,29.49,NNW,341,1.0,4.0,18,0.00,,,0.00,425.0,meteohub,2013-03-22 15:17:00,
2013-03-22 09:22:00,48.6,8.1,29.49,NNW,327,3.0,5.0,19,0.00,,,0.00,441.0,meteohub,2013-03-22 15:22:00,
2013-03-22 09:27:00,48.7,8.2,29.50,NW,305,4.0,7.0,19,0.00,,,0.00,459.0,meteohub,2013-03-22 15:27:00,
2013-03-22 09:32:00,48.7,7.2,29.50,NW,317,3.0,7.0,18,0.00,,,0.00,473.0,meteohub,2013-03-22 15:32:00,
2013-03-22 09:37:00,48.9,7.2,29.50,NNW,327,2.0,7.0,18,0.00,,,0.00,490.0,meteohub,2013-03-22 15:37:00,
2013-03-22 09:47:00,49.1,7.3,29.50,NW,323,3.0,7.0,18,0.00,,,0.00,522.0,meteohub,2013-03-22 15:47:00,
2013-03-22 09:52:00,49.3,7.5,29.51,NW,309,4.0,7.0,18,0.00,,,0.00,536.0,meteohub,2013-03-22 15:52:00,
2013-03-22 09:57:00,48.9,7.2,29.50,North,355,5.0,7.0,18,0.00,,,0.00,552.0,meteohub,2013-03-22 15:57:00,
2013-03-22 10:02:00,49.1,7.3,29.50,NW,317,3.0,7.0,18,0.00,,,0.00,570.0,meteohub,2013-03-22 16:02:00,
2013-03-22 10:07:00,49.3,6.3,29.50,NNW,338,5.0,7.0,17,0.00,,,0.00,582.0,meteohub,2013-03-22 16:07:00,
2013-03-22 10:12:00,49.6,3.9,29.50,NNW,338,1.0,6.0,15,0.00,,,0.00,598.0,meteohub,2013-03-22 16:12:00,
2013-03-22 10:17:00,50.2,5.7,29.50,NW,322,0.0,6.0,16,0.00,,,0.00,613.0,meteohub,2013-03-22 16:17:00,
2013-03-22 10:27:00,51.1,5.0,29.49,NW,317,2.0,5.0,15,0.00,,,0.00,643.0,meteohub,2013-03-22 16:27:00,
2013-03-22 10:32:00,51.8,5.5,29.49,NW,317,0.0,5.0,15,0.00,,,0.00,656.0,meteohub,2013-03-22 16:32:00,
2013-03-22 10:37:00,52.3,4.5,29.49,WNW,289,4.0,5.0,14,0.00,,,0.00,670.0,meteohub,2013-03-22 16:37:00,
2013-03-22 10:42:00,52.2,2.8,29.49,WNW,302,1.0,5.0,13,0.00,,,0.00,680.0,meteohub,2013-03-22 16:42:00,
2013-03-22 10:47:00,52.5,3.0,29.48,WNW,302,3.0,5.0,13,0.00,,,0.00,691.0,meteohub,2013-03-22 16:47:00,
2013-03-22 10:52:00,52.7,1.4,29.49,WNW,298,0.0,5.0,12,0.00,,,0.00,705.0,meteohub,2013-03-22 16:52:00,
2013-03-22 10:57:00,53.1,1.8,29.48,WSW,240,1.0,4.0,12,0.00,,,0.00,717.0,meteohub,2013-03-22 16:57:00,
2013-03-22 11:02:00,53.8,2.3,29.48,SW,220,0.0,4.0,12,0.00,,,0.00,729.0,meteohub,2013-03-22 17:02:00,
2013-03-22 11:07:00,54.7,3.0,29.48,SW,232,0.0,5.0,12,0.00,,,0.00,740.0,meteohub,2013-03-22 17:07:00,
2013-03-22 11:12:00,54.5,2.8,29.48,SSW,213,2.0,8.0,12,0.00,,,0.00,751.0,meteohub,2013-03-22 17:12:00,
2013-03-22 11:17:00,54.9,3.2,29.48,SSW,192,2.0,8.0,12,0.00,,,0.00,759.0,meteohub,2013-03-22 17:17:00,
2013-03-22 11:27:00,55.8,3.9,29.47,SSE,153,0.0,7.0,12,0.00,,,0.00,779.0,meteohub,2013-03-22 17:27:00,
2013-03-22 11:32:00,56.7,4.6,29.47,West,269,5.0,6.0,12,0.00,,,0.00,789.0,meteohub,2013-03-22 17:32:00,
2013-03-22 11:37:00,56.5,4.5,29.47,SW,226,1.0,8.0,12,0.00,,,0.00,795.0,meteohub,2013-03-22 17:37:00,
2013-03-22 11:47:00,57.6,5.4,29.47,SSW,209,3.0,8.0,12,0.00,,,0.00,810.0,meteohub,2013-03-22 17:47:00,
2013-03-22 11:52:00,57.7,5.4,29.46,SSW,192,3.0,9.0,12,0.00,,,0.00,817.0,meteohub,2013-03-22 17:52:00,
2013-03-22 11:57:00,57.6,5.4,29.46,WSW,242,8.0,9.0,12,0.00,,,0.00,823.0,meteohub,2013-03-22 17:57:00,
2013-03-22 12:07:00,56.8,4.8,29.46,South,175,6.0,11.0,12,0.00,,,0.00,835.0,meteohub,2013-03-22 18:07:00,
2013-03-22 12:12:00,57.6,7.0,29.45,WSW,254,5.0,11.0,13,0.00,,,0.00,842.0,meteohub,2013-03-22 18:12:00,
2013-03-22 12:17:00,58.6,7.9,29.45,SSW,200,4.0,9.0,13,0.00,,,0.00,846.0,meteohub,2013-03-22 18:17:00,
2013-03-22 12:22:00,59.2,6.6,29.45,SW,225,4.0,9.0,12,0.00,,,0.00,849.0,meteohub,2013-03-22 18:22:00,
2013-03-22 12:27:00,58.5,7.7,29.44,South,191,4.0,10.0,13,0.00,,,0.00,856.0,meteohub,2013-03-22 18:27:00,
2013-03-22 12:32:00,58.5,7.7,29.44,SW,232,4.0,11.0,13,0.00,,,0.00,858.0,meteohub,2013-03-22 18:32:00,
2013-03-22 12:37:00,58.8,8.1,29.44,SSW,196,11.0,11.0,13,0.00,,,0.00,863.0,meteohub,2013-03-22 18:37:00,
2013-03-22 12:42:00,58.8,6.3,29.43,SW,231,8.0,13.0,12,0.00,,,0.00,865.0,meteohub,2013-03-22 18:42:00,
2013-03-22 12:52:00,59.5,5.0,29.43,SSW,207,7.0,13.0,11,0.00,,,0.00,870.0,meteohub,2013-03-22 18:52:00,
2013-03-22 12:57:00,59.4,4.8,29.42,SW,217,4.0,11.0,11,0.00,,,0.00,870.0,meteohub,2013-03-22 18:57:00,
2013-03-22 13:02:00,59.5,5.0,29.42,SSW,205,6.0,12.0,11,0.00,,,0.00,875.0,meteohub,2013-03-22 19:02:00,
2013-03-22 13:07:00,59.7,5.0,29.42,SSE,155,3.0,13.0,11,0.00,,,0.00,881.0,meteohub,2013-03-22 19:07:00,
2013-03-22 13:12:00,60.4,5.7,29.41,SSW,192,7.0,13.0,11,0.00,,,0.00,884.0,meteohub,2013-03-22 19:12:00,
2013-03-22 13:17:00,59.7,5.0,29.41,South,173,3.0,11.0,11,0.00,,,0.00,912.0,meteohub,2013-03-22 19:17:00,
2013-03-22 13:22:00,59.9,5.2,29.40,SSE,161,3.0,9.0,11,0.00,,,0.00,954.0,meteohub,2013-03-22 19:22:00,
2013-03-22 13:27:00,60.3,5.5,29.40,West,272,7.0,9.0,11,0.00,,,0.00,385.0,meteohub,2013-03-22 19:27:00,
2013-03-22 13:32:00,60.3,5.5,29.39,SSW,208,2.0,10.0,11,0.00,,,0.00,343.0,meteohub,2013-03-22 19:32:00,
2013-03-22 13:37:00,60.4,5.7,29.39,NW,311,1.0,10.0,11,0.00,,,0.00,408.0,meteohub,2013-03-22 19:37:00,
2013-03-22 13:42:00,60.3,5.5,29.39,NW,311,8.0,10.0,11,0.00,,,0.00,306.0,meteohub,2013-03-22 19:42:00,
2013-03-22 13:47:00,59.7,5.0,29.39,NNW,336,5.0,12.0,11,0.00,,,0.00,299.0,meteohub,2013-03-22 19:47:00,
2013-03-22 13:52:00,59.2,6.6,29.38,North,0,5.0,12.0,12,0.00,,,0.00,265.0,meteohub,2013-03-22 19:52:00,
2013-03-22 13:57:00,58.8,6.3,29.38,North,355,2.0,12.0,12,0.00,,,0.00,262.0,meteohub,2013-03-22 19:57:00,
2013-03-22 14:02:00,58.6,6.1,29.37,NNW,338,4.0,9.0,12,0.00,,,0.00,241.0,meteohub,2013-03-22 20:02:00,
2013-03-22 14:12:00,59.4,6.8,29.37,North,351,3.0,6.0,12,0.00,,,0.00,206.0,meteohub,2013-03-22 20:12:00,
2013-03-22 14:22:00,59.0,6.4,29.37,North,5,3.0,10.0,12,0.00,,,0.00,149.0,meteohub,2013-03-22 20:22:00,
2013-03-22 14:27:00,59.2,6.6,29.37,North,355,7.0,11.0,12,0.00,,,0.00,153.0,meteohub,2013-03-22 20:27:00,
2013-03-22 14:32:00,58.6,6.1,29.37,NNE,20,5.0,11.0,12,0.00,,,0.00,151.0,meteohub,2013-03-22 20:32:00,
2013-03-22 14:37:00,58.5,7.7,29.37,NNE,19,3.0,10.0,13,0.00,,,0.00,153.0,meteohub,2013-03-22 20:37:00,
2013-03-22 14:42:00,58.6,7.9,29.36,NW,315,7.0,10.0,13,0.00,,,0.00,139.0,meteohub,2013-03-22 20:42:00,
2013-03-22 14:52:00,58.6,9.5,29.36,NW,319,2.0,9.0,14,0.00,,,0.00,137.0,meteohub,2013-03-22 20:52:00,
2013-03-22 14:57:00,58.5,9.5,29.36,North,355,2.0,9.0,14,0.00,,,0.00,120.0,meteohub,2013-03-22 20:57:00,
2013-03-22 15:02:00,58.6,9.5,29.36,WNW,282,4.0,9.0,14,0.00,,,0.00,95.0,meteohub,2013-03-22 21:02:00,
2013-03-22 15:07:00,58.8,8.1,29.36,West,268,5.0,9.0,13,0.00,,,0.00,118.0,meteohub,2013-03-22 21:07:00,
2013-03-22 15:17:00,58.8,8.1,29.36,SW,232,2.0,8.0,13,0.00,,,0.00,163.0,meteohub,2013-03-22 21:17:00,
2013-03-22 15:22:00,58.8,8.1,29.36,WSW,245,2.0,8.0,13,0.00,,,0.00,158.0,meteohub,2013-03-22 21:22:00,
2013-03-22 15:27:00,59.2,8.4,29.35,WSW,246,0.0,4.0,13,0.00,,,0.00,134.0,meteohub,2013-03-22 21:27:00,
2013-03-22 15:32:00,59.2,8.4,29.35,SW,216,3.0,4.0,13,0.00,,,0.00,102.0,meteohub,2013-03-22 21:32:00,
2013-03-22 15:37:00,58.8,8.1,29.35,South,177,1.0,5.0,13,0.00,,,0.00,93.0,meteohub,2013-03-22 21:37:00,
2013-03-22 15:42:00,59.2,8.4,29.35,South,177,1.0,5.0,13,0.00,,,0.00,114.0,meteohub,2013-03-22 21:42:00,
2013-03-22 15:47:00,59.2,11.5,29.35,SW,234,3.0,5.0,15,0.00,,,0.00,135.0,meteohub,2013-03-22 21:47:00,
2013-03-22 15:52:00,59.4,11.7,29.35,SW,224,5.0,7.0,15,0.00,,,0.00,155.0,meteohub,2013-03-22 21:52:00,
2013-03-22 16:02:00,59.5,11.8,29.34,SSW,202,1.0,8.0,15,0.00,,,0.00,158.0,meteohub,2013-03-22 22:02:00,
2013-03-22 16:07:00,59.5,11.8,29.34,SSW,203,1.0,6.0,15,0.00,,,0.00,163.0,meteohub,2013-03-22 22:07:00,
2013-03-22 16:12:00,59.7,12.0,29.34,SSW,213,4.0,4.0,15,0.00,,,0.00,139.0,meteohub,2013-03-22 22:12:00,
2013-03-22 16:17:00,59.9,12.2,29.33,SSW,213,1.0,5.0,15,0.00,,,0.00,707.0,meteohub,2013-03-22 22:17:00,
2013-03-22 16:22:00,60.6,12.7,29.34,SSW,213,0.0,5.0,15,0.00,,,0.00,218.0,meteohub,2013-03-22 22:22:00,
2013-03-22 16:32:00,61.2,14.5,29.32,South,182,4.0,9.0,16,0.00,,,0.00,230.0,meteohub,2013-03-22 22:32:00,
2013-03-22 16:37:00,62.1,15.3,29.33,NW,313,4.0,9.0,16,0.00,,,0.00,670.0,meteohub,2013-03-22 22:37:00,
2013-03-22 16:42:00,62.6,12.7,29.32,West,276,9.0,9.0,14,0.00,,,0.00,142.0,meteohub,2013-03-22 22:42:00,
2013-03-22 16:47:00,63.3,13.3,29.31,WSW,253,6.0,17.0,14,0.00,,,0.00,596.0,meteohub,2013-03-22 22:47:00,
2013-03-22 16:52:00,64.2,10.6,29.31,West,281,10.0,17.0,12,0.00,,,0.00,561.0,meteohub,2013-03-22 22:52:00,
2013-03-22 16:57:00,64.8,10.9,29.31,WNW,300,11.0,23.0,12,0.00,,,0.00,550.0,meteohub,2013-03-22 22:57:00,
2013-03-22 17:02:00,64.8,10.9,29.32,NW,319,12.0,23.0,12,0.00,,,0.00,176.0,meteohub,2013-03-22 23:02:00,
2013-03-22 17:07:00,64.4,12.4,29.31,NW,313,5.0,23.0,13,0.00,,,0.00,512.0,meteohub,2013-03-22 23:07:00,
2013-03-22 17:12:00,64.8,12.7,29.32,WNW,291,8.0,23.0,13,0.00,,,0.00,221.0,meteohub,2013-03-22 23:12:00,
2013-03-22 17:17:00,63.9,12.0,29.31,NW,311,8.0,22.0,13,0.00,,,0.00,334.0,meteohub,2013-03-22 23:17:00,
2013-03-22 17:22:00,63.9,12.0,29.31,NNW,335,7.0,23.0,13,0.00,,,0.00,457.0,meteohub,2013-03-22 23:22:00,
2013-03-22 17:32:00,64.6,10.8,29.31,WNW,301,15.0,16.0,12,0.00,,,0.00,374.0,meteohub,2013-03-22 23:32:00,
2013-03-22 17:37:00,64.8,9.0,29.31,NW,308,12.0,22.0,11,0.00,,,0.00,371.0,meteohub,2013-03-22 23:37:00,
2013-03-22 17:42:00,64.8,9.0,29.30,West,263,11.0,22.0,11,0.00,,,0.00,230.0,meteohub,2013-03-22 23:42:00,
2013-03-22 17:47:00,64.9,7.0,29.31,WSW,256,16.0,23.0,10,0.00,,,0.00,336.0,meteohub,2013-03-22 23:47:00,
2013-03-22 17:52:00,64.9,4.6,29.31,WNW,300,9.0,23.0,9,0.00,,,0.00,311.0,meteohub,2013-03-22 23:52:00,
2013-03-22 17:57:00,64.8,-0.8,29.31,NW,304,13.0,23.0,7,0.00,,,0.00,253.0,meteohub,2013-03-22 23:57:00,
2013-03-22 18:02:00,64.6,-0.9,29.31,WNW,286,11.0,22.0,7,0.00,,,0.00,221.0,meteohub,2013-03-23 00:02:00,
2013-03-22 18:07:00,64.6,-0.9,29.31,NW,304,15.0,22.0,7,0.00,,,0.00,190.0,meteohub,2013-03-23 00:07:00,
2013-03-22 18:12:00,64.2,1.6,29.31,West,265,11.0,23.0,8,0.00,,,0.00,153.0,meteohub,2013-03-23 00:12:00,
2013-03-22 18:17:00,64.2,1.6,29.31,West,281,7.0,28.0,8,0.00,,,0.00,123.0,meteohub,2013-03-23 00:17:00,
2013-03-22 18:27:00,63.3,3.6,29.32,WNW,294,9.0,28.0,9,0.00,,,0.00,26.0,meteohub,2013-03-23 00:27:00,
2013-03-22 18:37:00,62.4,2.8,29.32,WNW,292,13.0,19.0,9,0.00,,,0.00,30.0,meteohub,2013-03-23 00:37:00,
2013-03-22 18:42:00,62.1,2.5,29.33,WNW,290,7.0,19.0,9,0.00,,,0.00,37.0,meteohub,2013-03-23 00:42:00,
2013-03-22 18:52:00,62.1,4.8,29.33,WNW,285,12.0,16.0,10,0.00,,,0.00,51.0,meteohub,2013-03-23 00:52:00,
2013-03-22 18:57:00,62.1,4.8,29.33,NW,310,3.0,16.0,10,0.00,,,0.00,44.0,meteohub,2013-03-23 00:57:00,
2013-03-22 19:02:00,61.9,4.6,29.34,WNW,295,6.0,15.0,10,0.00,,,0.00,33.0,meteohub,2013-03-23 01:02:00,
2013-03-22 19:07:00,61.9,6.8,29.34,West,267,9.0,15.0,11,0.00,,,0.00,21.0,meteohub,2013-03-23 01:07:00,
2013-03-22 19:12:00,61.5,6.4,29.34,West,275,8.0,15.0,11,0.00,,,0.00,14.0,meteohub,2013-03-23 01:12:00,
2013-03-22 19:17:00,61.3,10.0,29.34,West,266,6.0,18.0,13,0.00,,,0.00,9.0,meteohub,2013-03-23 01:17:00,
2013-03-22 19:22:00,61.0,11.5,29.35,WNW,294,10.0,20.0,14,0.00,,,0.00,0.0,meteohub,2013-03-23 01:22:00,
2013-03-22 19:27:00,60.6,12.7,29.35,WNW,289,7.0,20.0,15,0.00,,,0.00,0.0,meteohub,2013-03-23 01:27:00,
2013-03-22 19:32:00,60.3,13.8,29.36,North,0,7.0,20.0,16,0.00,,,0.00,0.0,meteohub,2013-03-23 01:32:00,
2013-03-22 19:37:00,60.1,13.6,29.36,WNW,297,9.0,19.0,16,0.00,,,0.00,0.0,meteohub,2013-03-23 01:37:00,
2013-03-22 19:42:00,59.9,14.9,29.36,West,271,10.0,19.0,17,0.00,,,0.00,0.0,meteohub,2013-03-23 01:42:00,
2013-03-22 19:47:00,59.5,16.0,29.37,WSW,240,14.0,23.0,18,0.00,,,0.00,0.0,meteohub,2013-03-23 01:47:00,
2013-03-22 19:52:00,59.4,17.1,29.37,West,279,13.0,24.0,19,0.00,,,0.00,0.0,meteohub,2013-03-23 01:52:00,
2013-03-22 19:57:00,58.8,19.0,29.37,West,259,11.0,24.0,21,0.00,,,0.00,0.0,meteohub,2013-03-23 01:57:00,
2013-03-22 20:02:00,58.3,20.7,29.37,SW,235,18.0,22.0,23,0.00,,,0.00,0.0,meteohub,2013-03-23 02:02:00,
2013-03-22 20:07:00,57.6,21.9,29.37,WSW,257,11.0,24.0,25,0.00,,,0.00,0.0,meteohub,2013-03-23 02:07:00,
2013-03-22 20:12:00,57.0,22.5,29.38,WSW,250,24.0,24.0,26,0.00,,,0.00,0.0,meteohub,2013-03-23 02:12:00,
2013-03-22 20:17:00,56.7,23.0,29.37,WSW,238,13.0,26.0,27,0.00,,,0.00,0.0,meteohub,2013-03-23 02:17:00,
2013-03-22 20:22:00,56.3,23.5,29.38,West,275,6.0,26.0,28,0.00,,,0.00,0.0,meteohub,2013-03-23 02:22:00,
2013-03-22 20:32:00,55.8,24.8,29.38,West,267,8.0,22.0,30,0.00,,,0.00,0.0,meteohub,2013-03-23 02:32:00,
2013-03-22 20:37:00,55.8,24.8,29.39,WSW,238,5.0,22.0,30,0.00,,,0.00,0.0,meteohub,2013-03-23 02:37:00,
2013-03-22 20:42:00,55.2,25.2,29.39,WSW,253,6.0,22.0,31,0.00,,,0.00,0.0,meteohub,2013-03-23 02:42:00,
2013-03-22 20:47:00,55.0,25.7,29.39,West,269,21.0,22.0,32,0.00,,,0.00,0.0,meteohub,2013-03-23 02:47:00,
2013-03-22 20:52:00,54.9,26.2,29.39,SW,233,12.0,22.0,33,0.00,,,0.00,0.0,meteohub,2013-03-23 02:52:00,
2013-03-22 20:57:00,54.7,26.1,29.39,WSW,250,6.0,22.0,33,0.00,,,0.00,0.0,meteohub,2013-03-23 02:57:00,
2013-03-22 21:02:00,54.3,25.9,29.39,West,259,5.0,21.0,33,0.00,,,0.00,0.0,meteohub,2013-03-23 03:02:00,
2013-03-22 21:07:00,54.3,25.9,29.39,SW,236,10.0,18.0,33,0.00,,,0.00,0.0,meteohub,2013-03-23 03:07:00,
2013-03-22 21:12:00,54.1,25.7,29.39,WSW,248,7.0,25.0,33,0.00,,,0.00,0.0,meteohub,2013-03-23 03:12:00,
2013-03-22 21:22:00,54.0,25.5,29.40,WSW,247,12.0,25.0,33,0.00,,,0.00,0.0,meteohub,2013-03-23 03:22:00,
2013-03-22 21:27:00,54.0,25.5,29.40,West,259,7.0,19.0,33,0.00,,,0.00,0.0,meteohub,2013-03-23 03:27:00,
2013-03-22 21:37:00,53.4,25.0,29.40,West,259,14.0,17.0,33,0.00,,,0.00,0.0,meteohub,2013-03-23 03:37:00,
2013-03-22 21:42:00,53.4,25.0,29.40,WSW,252,7.0,22.0,33,0.00,,,0.00,0.0,meteohub,2013-03-23 03:42:00,
2013-03-22 21:52:00,53.4,25.7,29.40,WSW,249,18.0,22.0,34,0.00,,,0.00,0.0,meteohub,2013-03-23 03:52:00,
2013-03-22 21:57:00,53.2,26.2,29.40,WSW,248,11.0,24.0,35,0.00,,,0.00,0.0,meteohub,2013-03-23 03:57:00,
2013-03-22 22:02:00,53.2,26.2,29.41,WSW,250,9.0,24.0,35,0.00,,,0.00,0.0,meteohub,2013-03-23 04:02:00,
2013-03-22 22:07:00,53.1,26.8,29.41,WSW,250,8.0,22.0,36,0.00,,,0.00,0.0,meteohub,2013-03-23 04:07:00,
2013-03-22 22:12:00,53.1,26.8,29.41,WSW,239,10.0,22.0,36,0.00,,,0.00,0.0,meteohub,2013-03-23 04:12:00,
2013-03-22 22:17:00,52.9,26.6,29.41,West,270,5.0,22.0,36,0.00,,,0.00,0.0,meteohub,2013-03-23 04:17:00,
2013-03-22 22:22:00,52.9,26.6,29.41,SW,227,6.0,19.0,36,0.00,,,0.00,0.0,meteohub,2013-03-23 04:22:00,
2013-03-22 22:27:00,52.5,26.2,29.41,SW,219,5.0,18.0,36,0.00,,,0.00,0.0,meteohub,2013-03-23 04:27:00,
2013-03-22 22:32:00,52.5,26.2,29.41,SW,229,5.0,18.0,36,0.00,,,0.00,0.0,meteohub,2013-03-23 04:32:00,
2013-03-22 22:37:00,52.3,26.2,29.41,WSW,249,8.0,16.0,36,0.00,,,0.00,0.0,meteohub,2013-03-23 04:37:00,
2013-03-22 22:42:00,52.3,26.2,29.42,SW,225,8.0,16.0,36,0.00,,,0.00,0.0,meteohub,2013-03-23 04:42:00,
2013-03-22 22:47:00,52.3,26.2,29.42,West,259,6.0,16.0,36,0.00,,,0.00,0.0,meteohub,2013-03-23 04:47:00,
2013-03-22 22:52:00,52.3,25.5,29.42,SW,218,3.0,15.0,35,0.00,,,0.00,0.0,meteohub,2013-03-23 04:52:00,
2013-03-22 22:57:00,52.2,25.3,29.42,SW,232,5.0,14.0,35,0.00,,,0.00,0.0,meteohub,2013-03-23 04:57:00,
2013-03-22 23:02:00,52.2,25.3,29.42,SSW,211,2.0,14.0,35,0.00,,,0.00,0.0,meteohub,2013-03-23 05:02:00,
2013-03-22 23:07:00,52.0,25.2,29.42,SSW,207,6.0,12.0,35,0.00,,,0.00,0.0,meteohub,2013-03-23 05:07:00,
2013-03-22 23:12:00,51.8,25.7,29.42,South,169,4.0,12.0,36,0.00,,,0.00,0.0,meteohub,2013-03-23 05:12:00,
2013-03-22 23:17:00,51.4,25.3,29.42,SSW,200,4.0,10.0,36,0.00,,,0.00,0.0,meteohub,2013-03-23 05:17:00,
2013-03-22 23:22:00,51.3,25.2,29.43,South,180,4.0,10.0,36,0.00,,,0.00,0.0,meteohub,2013-03-23 05:22:00,
2013-03-22 23:27:00,51.1,25.7,29.43,SSE,157,3.0,10.0,37,0.00,,,0.00,0.0,meteohub,2013-03-23 05:27:00,
2013-03-22 23:32:00,50.5,25.9,29.43,SSE,168,2.0,7.0,38,0.00,,,0.00,0.0,meteohub,2013-03-23 05:32:00,
2013-03-22 23:37:00,50.2,26.2,29.42,SE,142,2.0,7.0,39,0.00,,,0.00,0.0,meteohub,2013-03-23 05:37:00,
2013-03-22 23:47:00,49.6,26.2,29.42,South,169,2.0,8.0,40,0.00,,,0.00,0.0,meteohub,2013-03-23 05:47:00,
2013-03-22 23:52:00,49.6,26.2,29.42,South,175,4.0,8.0,40,0.00,,,0.00,0.0,meteohub,2013-03-23 05:52:00,